ONEWEB-0337 (49203 NORAD) Tracking and Keplerian Element Data

This shows tracking and keplerian element data for the satellite.

Feedback or suggestion? Click here.




ElementValue
Catalog49203
NameONEWEB-0337
Epoch Orbit359
Epoch Day287.91667824
Epoch Year2021
RAAN317.579
Inclination87.2209
Eccentricity0.0020902
Argument of Perigee182.6085
Mean Anonmoly4.1133
Mean Motion14.93330418
Decay Rate-0.01298592
L11 49203U 21083T 21287.91667824 -.01298592 00000-0 -13389+0 0 9996
L22 49203 87.2209 317.5790 0020902 182.6085 4.1133 14.93330418 3598

Live tracking and technical data element details for ONEWEB-0337 (NORAD 49203). ONEWEB-0337 can be tracked NOW for your location showing map with azimuth and elevation plus other details from your city location.

Track the satellite on the map from your city or location and see movement details for azimuth, elevation, latitude, longitude, range, height, and movement on the map or in text.







IsCatalogInMostPopularTable: catalog: 49203, numindb: 8
Update: records affected: 1



GetName: 49203 ONEWEB-0337

Hit Count: updated at: Tue, 19 Oct 2021 08:30:02 GMT